Location: Bednik
(45.3500°N, 16.3833°E)
Time: 05:07:14
(UTC+00:00)

Cosmos 1459 Rocket - Pass Details

Date: 08 August 2020
Orbit: 936 x 1000 km, 83.0° (Epoch: 23 September)

Event Time Altitude Azimuth Distance (km) Brightness Sun altitude
Exits shadow 20:58:04 46° 136° (SE) 1,303 4.2 -22.9°
Maximum altitude 20:59:31 56° 92° (E) 1,166 4.2 -23.0°
Drops below altitude 10° 21:05:42 10° 16° (NNE) 2,772 6.9 -23.6°
Sets 21:08:17 0° 12° (NNE) 3,730 7.8 -23.8°
